Regional Weather Roundup
Issued by NWS Cleveland, OH

Home | Current Version | Previous Version | Graphics & Text | Print | Product List | Glossary On
Versions: 1 2 3 4 5 6 7 8 9 10 11 12 13 14 15 16 17 18 19 20 21 22 23 24 25 26 27 28 29 30 31 32 33 34 35 36 37 38 39 40 41 42 43 44 45 46 47 48 49 50
000
ASUS41 KCLE 221200
RWRCLE
OHIO REGIONAL WEATHER ROUNDUP
NATIONAL WEATHER SERVICE WILMINGTON, OH
800 AM EDT THU JUN 22 2017

NOTE: "FAIR" INDICATES FEW OR NO CLOUDS BELOW 12,000 FEET WITH NO
SIGNIFICANT WEATHER AND/OR OBSTRUCTIONS TO VISIBILITY.

OHZ001>008-015>018-024>027-034-035-043-044-221300-
   NORTHWEST OHIO

CITY           SKY/WX    TMP DP  RH WIND       PRES   REMARKS
DEFIANCE       FAIR      73  67  81 S7        29.94R
FINDLAY        PTSUNNY   78  67  68 SW10      29.94R
TOLEDO EXPRESS FAIR      68  62  81 SW6       29.92R
TOLEDO EXEC    FAIR      72  64  76 SW8       29.93R
LIMA           PTSUNNY   74  68  81 SW12      29.96S
$$

OHZ009>014-019>023-028>033-038-089-221300-
   NORTHEAST OHIO

CITY           SKY/WX    TMP DP  RH WIND       PRES   REMARKS
CLE-HOPKINS    FAIR      71  59  65 S9        29.97F
CLE-LAKEFRONT  FAIR      69  55  60 SE13G22   29.94F
CUY CO. ARPT   MOSUNNY   70  57  64 S14       29.97F
LORAIN-ELYRIA  FAIR      67  56  67 S7        29.96F
ASHTABULA      FAIR      63  58  83 S8        30.00S
AKRON-CANTON   FAIR      69  59  70 S7        29.99F
WOOSTER        NOT AVBL
MANSFIELD      FAIR      74  68  81 SW8       29.99S
YOUNGSTOWN     FAIR      66  56  70 SE8       29.99F
$$

OHZ042-051>053-060>062-070>072-077>081-221300-
  SOUTHWEST OHIO

CITY           SKY/WX    TMP DP  RH WIND       PRES   REMARKS
CINC-COVINGTON CLOUDY    72  68  87 S8        30.02R
CINC-LUNKEN    FAIR      72  69  90 CALM      30.01S
HAMILTON       FAIR      75  70  84 CALM      30.00F
DAYTON         NOT AVBL
WRIGHT-PAT AFB NOT AVBL
DAYTON GENERAL FAIR      73  67  81 S8        30.00S
WILMINGTON     FAIR      73  69  87 SW8       30.01F
$$

OHZ036-037-039>041-045>050-054>059-063>069-073>076-082>088-221300-
  CENTRAL AND SOUTHEAST OHIO

CITY           SKY/WX    TMP DP  RH WIND       PRES   REMARKS
COLUMBUS       PTSUNNY   75  69  81 SW8       29.99F
OSU AIRPORT    FAIR      76  69  79 SW8       29.99S
BOLTON FIELD   SUNNY     73  68  83 SW9       30.00F
RICKENBACK AFB NOT AVBL
NEWARK         FAIR      77  68  73 SW6       29.99F
MARION         FAIR      73  68  84 S10       29.98S
LANCASTER      FAIR      76  67  73 SW7       30.01S
ZANESVILLE     FAIR      74  68  81 S8        30.01S
NEW PHILLY     FAIR      69  66  90 SE6       30.00S
$$



USA.gov is the U.S. government's official web portal to all federal, state and local government web resources and services.